EW7670 Weather Reports


Display with metric or nautical units.
time (UTC)temp
F
wind
direction
speed
MPH
gust
MPH
rain 1hr
in
rain 24hr
in
rain mn
in
humidity
%
barometer
mb
20260902083112 82 233 14.0 19.0 0.00 0.00 0.00 86 1015.1
20260902081611 82 256 12.0 18.0 0.00 0.00 0.00 87 1015.2
20260902080123 82 245 13.0 18.0 0.00 0.00 0.00 87 1015.1
20260902074600 82 205 13.0 19.0 0.00 0.00 0.00 87 1015.0
20260902060013 83 260 14.0 20.0 0.00 0.00 0.00 85 1015.7
20260902054600 83 250 12.0 19.0 0.00 0.00 0.00 84 1015.8
20260902053006 83 223 15.0 21.0 0.00 0.00 0.00 81 1015.7
20260902051516 83 206 12.0 18.0 0.00 0.00 0.00 83 1015.7
20260902050019 83 217 11.0 19.0 0.00 0.00 0.00 84 1015.8
20260902044524 83 241 14.0 19.0 0.00 0.00 0.00 86 1015.6
20260902043029 83 245 13.0 21.0 0.00 0.00 0.00 85 1015.4
20260902041539 83 244 12.0 18.0 0.00 0.00 0.00 85 1015.5
20260902040036 83 188 11.0 18.0 0.00 0.00 0.00 85 1015.5
20260902011632 84 204 12.0 20.0 0.00 0.00 0.00 77 1014.6
20260901231525 84 189 12.0 19.0 0.00 0.00 0.00 74 1014.9
20260901221609 86 243 10.0 18.0 0.00 0.00 0.00 70 1015.1
20260901210016 87 208 11.0 16.0 0.00 0.00 0.00 67 1015.1
20260901201652 87 195 11.0 19.0 0.00 0.00 0.00 71 1015.2
20260901194507 87 181 8.0 15.0 0.00 0.00 0.00 77 1015.4
20260901180118 86 193 8.0 14.0 0.00 0.00 0.00 74 1016.0